TimeMST,TemperatureF,Dew PointF,Humidity,Sea Level PressureIn,VisibilityMPH,Wind Direction,Wind SpeedMPH,Gust SpeedMPH,PrecipitationIn,Events,Conditions,WindDirDegrees,DateUTC
12:53 AM,24.1,10.9,57,30.51,10.0,SW,4.6,-,N/A,,Clear,220,2012-11-23 07:53:00
1:53 AM,25.0,10.9,55,30.51,10.0,SW,5.8,-,N/A,,Clear,220,2012-11-23 08:53:00
2:53 AM,27.0,10.0,49,30.48,10.0,SW,3.5,-,N/A,,Clear,230,2012-11-23 09:53:00
3:53 AM,26.1,12.0,55,30.47,10.0,South,10.4,-,N/A,,Clear,190,2012-11-23 10:53:00
4:53 AM,24.1,12.0,60,30.50,10.0,SSE,5.8,-,N/A,,Clear,160,2012-11-23 11:53:00
5:53 AM,25.0,10.9,55,30.50,10.0,SSW,5.8,-,N/A,,Clear,210,2012-11-23 12:53:00
6:53 AM,24.1,10.9,57,30.48,10.0,SW,5.8,-,N/A,,Clear,220,2012-11-23 13:53:00
7:53 AM,26.1,12.0,55,30.46,10.0,SSW,4.6,-,N/A,,Clear,200,2012-11-23 14:53:00
8:53 AM,28.9,16.0,58,30.45,10.0,SSE,4.6,-,N/A,,Clear,160,2012-11-23 15:53:00
9:53 AM,32.0,19.0,59,30.44,10.0,SE,4.6,-,N/A,,Clear,140,2012-11-23 16:53:00
10:53 AM,37.9,21.0,51,30.39,10.0,SE,10.4,-,N/A,,Clear,140,2012-11-23 17:53:00
11:53 AM,46.9,7.0,20,30.33,10.0,SSE,13.8,-,N/A,,Clear,160,2012-11-23 18:53:00
12:53 PM,46.9,7.0,20,30.27,10.0,SSE,13.8,-,N/A,,Clear,160,2012-11-23 19:53:00
1:53 PM,43.0,16.0,34,30.27,10.0,South,11.5,-,N/A,,Clear,170,2012-11-23 20:53:00
2:53 PM,44.1,16.0,32,30.24,10.0,South,5.8,-,N/A,,Clear,170,2012-11-23 21:53:00
3:53 PM,42.1,16.0,35,30.23,10.0,South,4.6,-,N/A,,Clear,190,2012-11-23 22:53:00
4:53 PM,36.0,18.0,48,30.23,10.0,WSW,5.8,-,N/A,,Clear,240,2012-11-23 23:53:00
5:53 PM,39.0,18.0,43,30.19,10.0,West,3.5,-,N/A,,Clear,260,2012-11-24 00:53:00
6:53 PM,39.9,19.0,43,30.18,10.0,WNW,4.6,-,N/A,,Clear,290,2012-11-24 01:53:00
7:53 PM,41.0,19.9,43,30.16,10.0,WNW,4.6,-,N/A,,Clear,290,2012-11-24 02:53:00
8:53 PM,39.9,21.0,47,30.14,10.0,WSW,6.9,-,N/A,,Clear,240,2012-11-24 03:53:00
9:53 PM,43.0,19.9,40,30.11,10.0,NW,6.9,-,N/A,,Clear,310,2012-11-24 04:53:00
10:53 PM,39.9,19.0,43,30.06,10.0,SW,4.6,-,N/A,,Clear,230,2012-11-24 05:53:00
11:53 PM,42.1,19.0,40,30.00,10.0,Variable,3.5,-,N/A,,Clear,0,2012-11-24 06:53:00